Location: B�hl
(48.6968°N, 8.1352°E)
Time: 08:41:33
(UTC+00:00)

Cosmos 2219 Rocket - Pass Details

Date: 08 March 2021
Orbit: 826 x 848 km, 71.0° (Epoch: 12 April)

Event Time Altitude Azimuth Distance (km) Brightness Sun altitude
Rises 19:46:36 0° 234° (SW) 3,362 5.8 -24.2°
Reaches altitude 10° 19:49:13 10° 243° (WSW) 2,434 5.1 -24.6°
Maximum altitude 19:54:20 36° 310° (NW) 1,297 3.6 -25.4°
Drops below altitude 10° 19:59:31 10° 16° (NNE) 2,459 4.7 -26.1°
Sets 20:02:11 0° 25° (NNE) 3,401 5.4 -26.5°
